Location: Unspecified
(0.0000°N, 0.0000°E)
Time: 11:01:11
(UTC+00:00)

STARLINK-5653 - Pass Details

Date: 31 October 2025
Orbit: 485 x 486 km, 43.0° (Epoch: 27 March)

Event Time Altitude Azimuth Distance (km) Brightness Sun altitude
Rises 18:08:37 0° 257° (WSW) 2,535 9.9 -6.1°
Reaches altitude 10° 18:11:41 10° 284° (WNW) 1,653 7.2 -6.8°
Maximum altitude 18:13:39 14° 315° (NW) 1,434 6.2 -7.3°
Drops below altitude 10° 18:15:37 10° 347° (NNW) 1,649 6.0 -7.8°
Enters shadow 18:19:42 -3° 19° (NNE) 2,874 7.0 -8.7°
